sat.trackr.live / text

‹ back to catalog

STARLINK-33579

NORAD 62764 · 2025-015G

PAYLOAD ACTIVE UNKNOWN

§ Identity

Operator
Country
US
Launch date
2025-01-21
Launch site
AFWTR
Launch vehicle
Mass (kg)
RCS (m²)

Purposes: comms

External: N2YO · Heavens-Above · Gunter

§ Orbital elements

Epoch: 2026-09-21T20:58:28.874784Z

Period
94.01 min
Inclination
53.1601°
Eccentricity
0.0001505
Mean motion
15.31720688 rev/d
Perigee alt
469.6 km
Apogee alt
471.7 km
Semi-major
6,848.8 km
B*
6.2698e-4
RAAN
129.3722°
Arg perigee
89.1183°
Mean anomaly
270.9991°
Rev number
9,454

§ Raw data

STARLINK-335791 62764U 25015G   26264.87394531  .00019153  00000+0  62698-3 0  99902 62764  53.1601 129.3722 0001505  89.1183 270.9991 15.31720688 94540

JSON: /api/v1/satellites/62764 · /tle

For live sub-satellite position, see the globe view (requires WebGL).

§ Visibility from observer

Set your observer location to see the next 7 days of passes ≥ 10°. The values pass through the URL so the page stays shareable.

No JS? Fill the form by hand. The geolocation button needs JavaScript.